Time,TemperatureF,DewpointF,PressureIn,WindDirection,WindDirectionDegrees,WindSpeedMPH,WindSpeedGustMPH,Humidity,HourlyPrecipIn,Conditions,Clouds,dailyrainin,SoftwareType,DateUTC
2013-02-12 00:00:00,55.1,20.8,29.80,WSW,248,6.0,16.0,26,0.00,,,0.00,Wunderground v.1.15,2013-02-12 05:00:00,
2013-02-12 00:02:00,55.1,20.8,29.80,WSW,249,5.0,16.0,26,0.00,,,0.00,Wunderground v.1.15,2013-02-12 05:02:00,
2013-02-12 00:08:00,54.9,20.6,29.80,West,263,5.0,16.0,26,0.00,,,0.00,Wunderground v.1.15,2013-02-12 05:08:00,
2013-02-12 00:14:00,54.8,20.5,29.81,WSW,254,6.0,16.0,26,0.00,,,0.00,Wunderground v.1.15,2013-02-12 05:14:00,
2013-02-12 00:16:00,54.7,20.4,29.81,West,275,5.0,16.0,26,0.00,,,0.00,Wunderground v.1.15,2013-02-12 05:16:00,
2013-02-12 00:22:00,54.4,21.1,29.82,WNW,300,5.0,7.0,27,0.00,,,0.00,Wunderground v.1.15,2013-02-12 05:22:00,
2013-02-12 00:30:00,54.1,21.7,29.82,WSW,243,6.0,16.0,28,0.00,,,0.00,Wunderground v.1.15,2013-02-12 05:30:00,
2013-02-12 00:36:00,53.7,21.3,29.82,SW,226,5.0,16.0,28,0.00,,,0.00,Wunderground v.1.15,2013-02-12 05:36:00,
2013-02-12 00:42:00,53.5,21.2,29.83,WSW,257,6.0,16.0,28,0.00,,,0.00,Wunderground v.1.15,2013-02-12 05:42:00,
2013-02-12 00:48:00,53.6,21.2,29.83,West,266,8.0,16.0,28,0.00,,,0.00,Wunderground v.1.15,2013-02-12 05:48:00,
2013-02-12 00:54:00,53.5,22.0,29.83,West,272,8.0,16.0,29,0.00,,,0.00,Wunderground v.1.15,2013-02-12 05:54:00,
2013-02-12 01:00:00,53.2,22.5,29.84,West,275,7.0,22.0,30,0.00,,,0.00,Wunderground v.1.15,2013-02-12 06:00:00,
2013-02-12 01:06:00,52.9,22.3,29.84,WNW,282,6.0,22.0,30,0.00,,,0.00,Wunderground v.1.15,2013-02-12 06:06:00,
2013-02-12 01:14:00,52.7,22.1,29.84,West,264,8.0,22.0,30,0.00,,,0.00,Wunderground v.1.15,2013-02-12 06:14:00,
2013-02-12 01:20:00,52.4,22.6,29.84,SSW,194,5.0,5.0,31,0.00,,,0.00,Wunderground v.1.15,2013-02-12 06:20:00,
2013-02-12 01:26:00,52.2,22.4,29.84,West,281,4.0,22.0,31,0.00,,,0.00,Wunderground v.1.15,2013-02-12 06:26:00,
2013-02-12 01:32:00,51.9,23.7,29.84,West,265,5.0,22.0,33,0.00,,,0.00,Wunderground v.1.15,2013-02-12 06:32:00,
2013-02-12 01:38:00,51.5,23.3,29.85,WSW,250,3.0,22.0,33,0.00,,,0.00,Wunderground v.1.15,2013-02-12 06:38:00,
2013-02-12 01:44:00,51.2,23.8,29.85,West,279,2.0,22.0,34,0.00,,,0.00,Wunderground v.1.15,2013-02-12 06:44:00,
2013-02-12 01:50:00,51.0,23.6,29.86,SSW,193,5.0,22.0,34,0.00,,,0.00,Wunderground v.1.15,2013-02-12 06:50:00,
2013-02-12 01:56:00,50.8,24.1,29.86,SSW,200,7.0,22.0,35,0.00,,,0.00,Wunderground v.1.15,2013-02-12 06:56:00,
2013-02-12 02:04:00,50.4,24.4,29.87,WNW,286,4.0,20.0,36,0.00,,,0.00,Wunderground v.1.15,2013-02-12 07:04:00,
2013-02-12 02:10:00,49.9,24.6,29.88,SW,214,3.0,20.0,37,0.00,,,0.00,Wunderground v.1.15,2013-02-12 07:10:00,
2013-02-12 02:16:00,49.6,24.4,29.87,West,267,4.0,20.0,37,0.00,,,0.00,Wunderground v.1.15,2013-02-12 07:16:00,
2013-02-12 02:22:00,49.4,24.8,29.88,WNW,288,5.0,20.0,38,0.00,,,0.00,Wunderground v.1.15,2013-02-12 07:22:00,
2013-02-12 02:30:00,49.0,25.1,29.88,West,267,4.0,20.0,39,0.00,,,0.00,Wunderground v.1.15,2013-02-12 07:30:00,
2013-02-12 02:36:00,49.0,25.7,29.88,SSW,205,6.0,20.0,40,0.00,,,0.00,Wunderground v.1.15,2013-02-12 07:36:00,
2013-02-12 02:42:00,48.8,25.5,29.88,WNW,291,6.0,20.0,40,0.00,,,0.00,Wunderground v.1.15,2013-02-12 07:42:00,
2013-02-12 02:48:00,48.8,25.5,29.88,WSW,240,6.0,20.0,40,0.00,,,0.00,Wunderground v.1.15,2013-02-12 07:48:00,
2013-02-12 02:54:00,48.5,25.8,29.88,West,271,4.0,20.0,41,0.00,,,0.00,Wunderground v.1.15,2013-02-12 07:54:00,
2013-02-12 03:00:00,48.1,26.1,29.88,NNE,24,3.0,18.0,42,0.00,,,0.00,Wunderground v.1.15,2013-02-12 08:00:00,
2013-02-12 03:06:00,47.9,25.9,29.88,West,276,2.0,18.0,42,0.00,,,0.00,Wunderground v.1.15,2013-02-12 08:06:00,
2013-02-12 03:12:00,47.7,26.3,29.88,WSW,256,4.0,18.0,43,0.00,,,0.00,Wunderground v.1.15,2013-02-12 08:12:00,
2013-02-12 03:20:00,47.4,26.6,29.88,WSW,250,5.0,18.0,44,0.00,,,0.00,Wunderground v.1.15,2013-02-12 08:20:00,
2013-02-12 03:26:00,47.3,25.9,29.88,West,262,4.0,18.0,43,0.00,,,0.00,Wunderground v.1.15,2013-02-12 08:26:00,
2013-02-12 03:32:00,47.2,26.4,29.88,West,271,3.0,18.0,44,0.00,,,0.00,Wunderground v.1.15,2013-02-12 08:32:00,
2013-02-12 03:38:00,47.2,26.4,29.88,SW,216,4.0,18.0,44,0.00,,,0.00,Wunderground v.1.15,2013-02-12 08:38:00,
2013-02-12 03:44:00,47.2,26.4,29.88,SSW,204,4.0,18.0,44,0.00,,,0.00,Wunderground v.1.15,2013-02-12 08:44:00,
2013-02-12 03:50:00,47.0,27.3,29.88,West,270,3.0,18.0,46,0.00,,,0.00,Wunderground v.1.15,2013-02-12 08:50:00,
2013-02-12 03:56:00,46.7,26.5,29.89,SW,232,2.0,18.0,45,0.00,,,0.00,Wunderground v.1.15,2013-02-12 08:56:00,
2013-02-12 04:02:00,46.4,26.2,29.89,West,272,1.0,13.0,45,0.00,,,0.00,Wunderground v.1.15,2013-02-12 09:02:00,
2013-02-12 04:08:00,46.2,26.5,29.89,WSW,251,2.0,13.0,46,0.00,,,0.00,Wunderground v.1.15,2013-02-12 09:08:00,
2013-02-12 04:16:00,46.1,26.4,29.90,SSW,197,3.0,13.0,46,0.00,,,0.00,Wunderground v.1.15,2013-02-12 09:16:00,
2013-02-12 04:22:00,46.0,26.9,29.90,West,264,3.0,13.0,47,0.00,,,0.00,Wunderground v.1.15,2013-02-12 09:22:00,
2013-02-12 04:28:00,46.0,26.4,29.89,West,275,3.0,13.0,46,0.00,,,0.00,Wunderground v.1.15,2013-02-12 09:28:00,
2013-02-12 04:34:00,45.9,26.3,29.88,WNW,287,4.0,13.0,46,0.00,,,0.00,Wunderground v.1.15,2013-02-12 09:34:00,
2013-02-12 04:40:00,45.9,26.3,29.88,NNW,327,5.0,13.0,46,0.00,,,0.00,Wunderground v.1.15,2013-02-12 09:40:00,
2013-02-12 04:46:00,45.9,26.3,29.88,WNW,284,5.0,13.0,46,0.00,,,0.00,Wunderground v.1.15,2013-02-12 09:46:00,
2013-02-12 04:52:00,45.8,26.2,29.88,SSW,204,4.0,13.0,46,0.00,,,0.00,Wunderground v.1.15,2013-02-12 09:52:00,
2013-02-12 04:58:00,45.7,26.1,29.87,WSW,238,4.0,13.0,46,0.00,,,0.00,Wunderground v.1.15,2013-02-12 09:58:00,
2013-02-12 05:04:00,45.4,26.3,29.88,West,261,4.0,13.0,47,0.00,,,0.00,Wunderground v.1.15,2013-02-12 10:04:00,
2013-02-12 05:10:00,45.3,26.2,29.88,West,274,4.0,13.0,47,0.00,,,0.00,Wunderground v.1.15,2013-02-12 10:10:00,
2013-02-12 05:16:00,45.2,26.1,29.88,SW,234,4.0,13.0,47,0.00,,,0.00,Wunderground v.1.15,2013-02-12 10:16:00,
2013-02-12 05:22:00,45.1,26.1,29.89,West,279,4.0,13.0,47,0.00,,,0.00,Wunderground v.1.15,2013-02-12 10:22:00,
2013-02-12 05:28:00,45.2,26.1,29.88,West,281,5.0,13.0,47,0.00,,,0.00,Wunderground v.1.15,2013-02-12 10:28:00,
2013-02-12 05:34:00,45.2,25.6,29.90,SSW,195,5.0,13.0,46,0.00,,,0.00,Wunderground v.1.15,2013-02-12 10:34:00,
2013-02-12 05:40:00,45.1,26.1,29.89,WSW,248,4.0,13.0,47,0.00,,,0.00,Wunderground v.1.15,2013-02-12 10:40:00,
2013-02-12 05:46:00,45.0,25.4,29.89,SSW,195,3.0,13.0,46,0.00,,,0.00,Wunderground v.1.15,2013-02-12 10:46:00,
2013-02-12 05:52:00,44.9,25.9,29.88,ESE,111,3.0,13.0,47,0.00,,,0.00,Wunderground v.1.15,2013-02-12 10:52:00,
2013-02-12 05:58:00,44.7,25.7,29.90,WNW,286,3.0,13.0,47,0.00,,,0.00,Wunderground v.1.15,2013-02-12 10:58:00,
2013-02-12 06:04:00,44.6,25.6,29.90,West,275,3.0,14.0,47,0.00,,,0.00,Wunderground v.1.15,2013-02-12 11:04:00,
2013-02-12 06:10:00,44.7,25.2,29.90,SSW,213,4.0,14.0,46,0.00,,,0.00,Wunderground v.1.15,2013-02-12 11:10:00,
2013-02-12 06:16:00,44.6,25.6,29.90,West,269,3.0,14.0,47,0.00,,,0.00,Wunderground v.1.15,2013-02-12 11:16:00,
2013-02-12 06:22:00,44.5,25.0,29.91,ESE,119,3.0,14.0,46,0.00,,,0.00,Wunderground v.1.15,2013-02-12 11:22:00,
2013-02-12 06:28:00,44.6,25.1,29.90,WNW,284,3.0,14.0,46,0.00,,,0.00,Wunderground v.1.15,2013-02-12 11:28:00,
2013-02-12 06:34:00,44.4,24.9,29.90,WSW,241,2.0,14.0,46,0.00,,,0.00,Wunderground v.1.15,2013-02-12 11:34:00,
2013-02-12 06:40:00,44.2,24.7,29.90,South,173,3.0,3.0,46,0.00,,,0.00,Wunderground v.1.15,2013-02-12 11:40:00,
2013-02-12 06:46:00,44.1,24.6,29.90,ESE,119,3.0,14.0,46,0.00,,,0.00,Wunderground v.1.15,2013-02-12 11:46:00,
2013-02-12 06:52:00,44.0,24.5,29.90,SW,230,2.0,14.0,46,0.00,,,0.00,Wunderground v.1.15,2013-02-12 11:52:00,
2013-02-12 06:58:00,43.9,24.4,29.90,NW,317,1.0,14.0,46,0.00,,,0.00,Wunderground v.1.15,2013-02-12 11:58:00,
2013-02-12 07:04:00,43.9,26.0,29.91,SSE,161,1.0,15.0,49,0.00,,,0.00,Wunderground v.1.15,2013-02-12 12:04:00,
2013-02-12 07:10:00,43.8,24.3,29.91,NNW,332,2.0,2.0,46,0.00,,,0.00,Wunderground v.1.15,2013-02-12 12:10:00,
2013-02-12 07:16:00,43.7,24.2,29.91,West,271,3.0,15.0,46,0.00,,,0.00,Wunderground v.1.15,2013-02-12 12:16:00,
2013-02-12 07:22:00,43.8,24.3,29.91,SSW,199,3.0,15.0,46,0.00,,,0.00,Wunderground v.1.15,2013-02-12 12:22:00,
2013-02-12 07:28:00,43.8,24.3,29.91,West,279,3.0,15.0,46,0.00,,,0.00,Wunderground v.1.15,2013-02-12 12:28:00,
2013-02-12 07:34:00,43.9,26.0,29.91,WNW,283,4.0,15.0,49,0.00,,,0.00,Wunderground v.1.15,2013-02-12 12:34:00,
2013-02-12 07:40:00,44.0,24.5,29.90,WSW,242,5.0,15.0,46,0.00,,,0.00,Wunderground v.1.15,2013-02-12 12:40:00,
2013-02-12 07:46:00,44.0,24.5,29.91,West,263,5.0,15.0,46,0.00,,,0.00,Wunderground v.1.15,2013-02-12 12:46:00,
2013-02-12 07:52:00,44.1,24.6,29.90,WNW,282,5.0,15.0,46,0.00,,,0.00,Wunderground v.1.15,2013-02-12 12:52:00,
2013-02-12 07:58:00,44.1,24.1,29.90,West,278,5.0,15.0,45,0.00,,,0.00,Wunderground v.1.15,2013-02-12 12:58:00,
2013-02-12 08:04:00,44.3,24.3,29.89,WSW,240,5.0,14.0,45,0.00,,,0.00,Wunderground v.1.15,2013-02-12 13:04:00,
2013-02-12 08:10:00,44.2,23.6,29.89,SW,226,5.0,5.0,44,0.00,,,0.00,Wunderground v.1.15,2013-02-12 13:10:00,
2013-02-12 08:16:00,44.1,24.6,29.90,West,276,4.0,14.0,46,0.00,,,0.00,Wunderground v.1.15,2013-02-12 13:16:00,
2013-02-12 08:22:00,44.3,24.3,29.90,West,263,5.0,14.0,45,0.00,,,0.00,Wunderground v.1.15,2013-02-12 13:22:00,
2013-02-12 08:28:00,44.6,24.0,29.90,WNW,298,5.0,14.0,44,0.00,,,0.00,Wunderground v.1.15,2013-02-12 13:28:00,
2013-02-12 08:34:00,45.0,23.8,29.90,SW,215,5.0,14.0,43,0.00,,,0.00,Wunderground v.1.15,2013-02-12 13:34:00,
2013-02-12 08:40:00,45.4,24.7,29.91,West,261,5.0,14.0,44,0.00,,,0.00,Wunderground v.1.15,2013-02-12 13:40:00,
2013-02-12 08:46:00,45.7,24.5,29.91,NNW,336,5.0,14.0,43,0.00,,,0.00,Wunderground v.1.15,2013-02-12 13:46:00,
2013-02-12 08:52:00,46.0,24.2,29.92,WNW,294,5.0,14.0,42,0.00,,,0.00,Wunderground v.1.15,2013-02-12 13:52:00,
2013-02-12 08:58:00,46.3,24.4,29.92,SSW,212,6.0,14.0,42,0.00,,,0.00,Wunderground v.1.15,2013-02-12 13:58:00,
2013-02-12 09:04:00,46.5,24.0,29.92,WNW,292,5.0,20.0,41,0.00,,,0.00,Wunderground v.1.15,2013-02-12 14:04:00,
2013-02-12 09:10:00,46.8,24.3,29.92,West,271,6.0,20.0,41,0.00,,,0.00,Wunderground v.1.15,2013-02-12 14:10:00,
2013-02-12 09:16:00,47.0,23.9,29.92,WSW,256,7.0,20.0,40,0.00,,,0.00,Wunderground v.1.15,2013-02-12 14:16:00,
2013-02-12 09:22:00,47.6,23.8,29.91,West,279,7.0,20.0,39,0.00,,,0.00,Wunderground v.1.15,2013-02-12 14:22:00,
2013-02-12 09:28:00,48.1,24.9,29.92,South,169,7.0,20.0,40,0.00,,,0.00,Wunderground v.1.15,2013-02-12 14:28:00,
2013-02-12 09:34:00,48.2,23.7,29.92,WNW,298,7.0,20.0,38,0.00,,,0.00,Wunderground v.1.15,2013-02-12 14:34:00,
2013-02-12 09:40:00,48.2,24.4,29.92,WNW,293,6.0,6.0,39,0.00,,,0.00,Wunderground v.1.15,2013-02-12 14:40:00,
2013-02-12 09:46:00,48.2,23.7,29.92,SW,233,5.0,20.0,38,0.00,,,0.00,Wunderground v.1.15,2013-02-12 14:46:00,
2013-02-12 09:52:00,48.1,23.0,29.92,West,271,5.0,5.0,37,0.00,,,0.00,Wunderground v.1.15,2013-02-12 14:52:00,
2013-02-12 09:58:00,48.1,24.3,29.92,NNW,341,4.0,20.0,39,0.00,,,0.00,Wunderground v.1.15,2013-02-12 14:58:00,
2013-02-12 10:04:00,48.2,23.7,29.92,NNE,13,2.0,20.0,38,0.00,,,0.00,Wunderground v.1.15,2013-02-12 15:04:00,
2013-02-12 10:10:00,48.5,23.4,29.92,WNW,286,3.0,20.0,37,0.00,,,0.00,Wunderground v.1.15,2013-02-12 15:10:00,
2013-02-12 10:16:00,48.7,23.6,29.92,South,186,2.0,20.0,37,0.00,,,0.00,Wunderground v.1.15,2013-02-12 15:16:00,
2013-02-12 10:22:00,48.7,23.6,29.93,West,271,2.0,20.0,37,0.00,,,0.00,Wunderground v.1.15,2013-02-12 15:22:00,
2013-02-12 10:28:00,49.0,23.8,29.93,North,355,1.0,20.0,37,0.00,,,0.00,Wunderground v.1.15,2013-02-12 15:28:00,
2013-02-12 10:34:00,49.9,25.3,29.93,SW,233,1.0,20.0,38,0.00,,,0.00,Wunderground v.1.15,2013-02-12 15:34:00,
2013-02-12 10:40:00,50.5,23.8,29.93,WSW,258,2.0,2.0,35,0.00,,,0.00,Wunderground v.1.15,2013-02-12 15:40:00,
2013-02-12 10:46:00,51.3,23.1,29.93,ESE,109,2.0,20.0,33,0.00,,,0.00,Wunderground v.1.15,2013-02-12 15:46:00,
2013-02-12 10:52:00,52.3,24.7,29.93,SSE,165,2.0,20.0,34,0.00,,,0.00,Wunderground v.1.15,2013-02-12 15:52:00,
2013-02-12 10:58:00,53.0,24.6,29.93,SSE,154,1.0,20.0,33,0.00,,,0.00,Wunderground v.1.15,2013-02-12 15:58:00,
2013-02-12 11:04:00,53.4,24.2,29.94,WNW,288,1.0,18.0,32,0.00,,,0.00,Wunderground v.1.15,2013-02-12 16:04:00,
2013-02-12 11:10:00,53.7,25.2,29.94,ENE,73,2.0,18.0,33,0.00,,,0.00,Wunderground v.1.15,2013-02-12 16:10:00,
2013-02-12 11:16:00,53.7,24.5,29.93,WSW,240,2.0,18.0,32,0.00,,,0.00,Wunderground v.1.15,2013-02-12 16:16:00,
2013-02-12 11:22:00,53.8,25.3,29.93,ESE,104,1.0,18.0,33,0.00,,,0.00,Wunderground v.1.15,2013-02-12 16:22:00,
2013-02-12 11:28:00,53.8,24.6,29.93,SSW,205,1.0,18.0,32,0.00,,,0.00,Wunderground v.1.15,2013-02-12 16:28:00,
2013-02-12 11:34:00,53.7,25.2,29.93,West,281,1.0,18.0,33,0.00,,,0.00,Wunderground v.1.15,2013-02-12 16:34:00,
2013-02-12 11:40:00,54.2,24.9,29.93,SSE,163,1.0,1.0,32,0.00,,,0.00,Wunderground v.1.15,2013-02-12 16:40:00,
2013-02-12 11:46:00,55.0,25.6,29.93,South,180,1.0,18.0,32,0.00,,,0.00,Wunderground v.1.15,2013-02-12 16:46:00,
2013-02-12 11:52:00,55.6,26.2,29.92,WSW,254,1.0,18.0,32,0.00,,,0.00,Wunderground v.1.15,2013-02-12 16:52:00,
2013-02-12 12:00:00,55.6,25.4,29.92,West,279,2.0,2.0,31,0.00,,,0.00,Wunderground v.1.15,2013-02-12 17:00:00,
2013-02-12 12:06:00,55.3,25.9,29.92,South,172,2.0,8.0,32,0.00,,,0.00,Wunderground v.1.15,2013-02-12 17:06:00,
2013-02-12 12:12:00,55.7,24.7,29.93,ENE,67,2.0,8.0,30,0.00,,,0.00,Wunderground v.1.15,2013-02-12 17:12:00,
2013-02-12 12:18:00,56.5,24.6,29.92,ESE,109,1.0,8.0,29,0.00,,,0.00,Wunderground v.1.15,2013-02-12 17:18:00,
2013-02-12 12:24:00,57.3,25.3,29.92,SSE,158,1.0,8.0,29,0.00,,,0.00,Wunderground v.1.15,2013-02-12 17:24:00,
2013-02-12 12:30:00,57.8,24.0,29.91,SE,126,1.0,8.0,27,0.00,,,0.00,Wunderground v.1.15,2013-02-12 17:30:00,
2013-02-12 12:36:00,58.3,24.4,29.91,East,92,1.0,8.0,27,0.00,,,0.00,Wunderground v.1.15,2013-02-12 17:36:00,
2013-02-12 12:42:00,58.8,23.9,29.91,NE,40,1.0,4.0,26,0.00,,,0.00,Wunderground v.1.15,2013-02-12 17:42:00,
2013-02-12 12:52:00,58.8,24.9,29.89,SSW,208,2.0,8.0,27,0.00,,,0.00,Wunderground v.1.15,2013-02-12 17:52:00,
2013-02-12 12:58:00,58.9,23.1,29.89,SSE,156,2.0,8.0,25,0.00,,,0.00,Wunderground v.1.15,2013-02-12 17:58:00,
2013-02-12 13:04:00,59.0,23.2,29.88,West,264,2.0,10.0,25,0.00,,,0.00,Wunderground v.1.15,2013-02-12 18:04:00,
2013-02-12 13:10:00,58.8,23.9,29.87,SSW,209,2.0,10.0,26,0.00,,,0.00,Wunderground v.1.15,2013-02-12 18:10:00,
2013-02-12 13:16:00,58.9,23.1,29.86,SSW,193,2.0,10.0,25,0.00,,,0.00,Wunderground v.1.15,2013-02-12 18:16:00,
2013-02-12 13:22:00,58.8,24.9,29.85,SSW,202,2.0,10.0,27,0.00,,,0.00,Wunderground v.1.15,2013-02-12 18:22:00,
2013-02-12 13:28:00,58.6,22.8,29.85,WSW,257,2.0,10.0,25,0.00,,,0.00,Wunderground v.1.15,2013-02-12 18:28:00,
2013-02-12 13:34:00,59.0,25.0,29.85,SSW,208,2.0,10.0,27,0.00,,,0.00,Wunderground v.1.15,2013-02-12 18:34:00,
2013-02-12 13:40:00,59.5,25.5,29.85,ESE,104,1.0,1.0,27,0.00,,,0.00,Wunderground v.1.15,2013-02-12 18:40:00,
2013-02-12 13:46:00,59.9,24.9,29.84,SW,226,1.0,10.0,26,0.00,,,0.00,Wunderground v.1.15,2013-02-12 18:46:00,
2013-02-12 13:52:00,59.9,24.9,29.83,SSW,209,2.0,10.0,26,0.00,,,0.00,Wunderground v.1.15,2013-02-12 18:52:00,
2013-02-12 13:58:00,60.2,24.2,29.82,ESE,106,1.0,10.0,25,0.00,,,0.00,Wunderground v.1.15,2013-02-12 18:58:00,
2013-02-12 14:04:00,60.4,25.3,29.79,ENE,64,1.0,9.0,26,0.00,,,0.00,Wunderground v.1.15,2013-02-12 19:04:00,
2013-02-12 14:10:00,60.5,24.5,29.79,East,79,1.0,9.0,25,0.00,,,0.00,Wunderground v.1.15,2013-02-12 19:10:00,
2013-02-12 14:16:00,61.0,23.9,29.80,SSE,161,0.0,9.0,24,0.00,,,0.00,Wunderground v.1.15,2013-02-12 19:16:00,
2013-02-12 14:22:00,61.4,27.1,29.81,East,81,0.0,9.0,27,0.00,,,0.00,Wunderground v.1.15,2013-02-12 19:22:00,
2013-02-12 14:28:00,61.6,25.4,29.85,SSE,154,1.0,9.0,25,0.00,,,0.00,Wunderground v.1.15,2013-02-12 19:28:00,
2013-02-12 14:34:00,61.6,28.1,29.87,SW,217,1.0,9.0,28,0.00,,,0.00,Wunderground v.1.15,2013-02-12 19:34:00,
2013-02-12 14:40:00,61.2,28.7,29.86,NNE,32,1.0,1.0,29,0.00,,,0.00,Wunderground v.1.15,2013-02-12 19:40:00,
2013-02-12 14:46:00,60.7,29.1,29.86,NW,304,1.0,9.0,30,0.00,,,0.00,Wunderground v.1.15,2013-02-12 19:46:00,
2013-02-12 14:52:00,60.2,29.4,29.86,NNW,337,0.0,9.0,31,0.00,,,0.00,Wunderground v.1.15,2013-02-12 19:52:00,
2013-02-12 14:58:00,59.9,26.7,29.87,SE,142,0.0,9.0,28,0.00,,,0.00,Wunderground v.1.15,2013-02-12 19:58:00,
2013-02-12 15:04:00,60.2,26.1,29.86,South,183,0.0,7.0,27,0.00,,,0.00,Wunderground v.1.15,2013-02-12 20:04:00,
2013-02-12 15:10:00,60.6,25.5,29.87,ENE,61,1.0,7.0,26,0.00,,,0.00,Wunderground v.1.15,2013-02-12 20:10:00,
2013-02-12 15:16:00,60.7,24.6,29.87,South,174,1.0,7.0,25,0.00,,,0.00,Wunderground v.1.15,2013-02-12 20:16:00,
2013-02-12 15:22:00,60.7,25.6,29.86,SSE,157,1.0,7.0,26,0.00,,,0.00,Wunderground v.1.15,2013-02-12 20:22:00,
2013-02-12 15:28:00,60.9,26.7,29.86,SE,133,0.0,7.0,27,0.00,,,0.00,Wunderground v.1.15,2013-02-12 20:28:00,
2013-02-12 15:34:00,60.7,27.4,29.87,ENE,74,1.0,7.0,28,0.00,,,0.00,Wunderground v.1.15,2013-02-12 20:34:00,
2013-02-12 15:40:00,60.2,26.1,29.87,WNW,288,1.0,1.0,27,0.00,,,0.00,Wunderground v.1.15,2013-02-12 20:40:00,
2013-02-12 15:46:00,59.7,26.5,29.87,SE,145,1.0,7.0,28,0.00,,,0.00,Wunderground v.1.15,2013-02-12 20:46:00,
2013-02-12 15:52:00,59.3,27.0,29.86,North,355,1.0,3.0,29,0.00,,,0.00,Wunderground v.1.15,2013-02-12 20:52:00,
2013-02-12 15:58:00,59.2,26.9,29.87,East,89,1.0,7.0,29,0.00,,,0.00,Wunderground v.1.15,2013-02-12 20:58:00,
2013-02-12 16:06:00,59.3,27.0,29.86,East,91,0.0,9.0,29,0.00,,,0.00,Wunderground v.1.15,2013-02-12 21:06:00,
2013-02-12 16:12:00,59.1,26.0,29.85,NW,320,1.0,9.0,28,0.00,,,0.00,Wunderground v.1.15,2013-02-12 21:12:00,
2013-02-12 16:18:00,58.7,26.5,29.84,South,191,1.0,9.0,29,0.00,,,0.00,Wunderground v.1.15,2013-02-12 21:18:00,
2013-02-12 16:28:00,58.0,25.0,29.85,SSW,192,0.0,9.0,28,0.00,,,0.00,Wunderground v.1.15,2013-02-12 21:28:00,
2013-02-12 16:34:00,57.6,28.7,29.85,NNE,15,0.0,9.0,33,0.00,,,0.00,Wunderground v.1.15,2013-02-12 21:34:00,
2013-02-12 16:40:00,57.2,27.6,29.85,NNE,15,0.0,9.0,32,0.00,,,0.00,Wunderground v.1.15,2013-02-12 21:40:00,
2013-02-12 16:46:00,57.0,26.6,29.85,NNE,15,0.0,9.0,31,0.00,,,0.00,Wunderground v.1.15,2013-02-12 21:46:00,
2013-02-12 16:52:00,56.9,25.7,29.86,SW,215,0.0,9.0,30,0.00,,,0.00,Wunderground v.1.15,2013-02-12 21:52:00,
2013-02-12 16:58:00,56.8,28.0,29.86,East,94,0.0,9.0,33,0.00,,,0.00,Wunderground v.1.15,2013-02-12 21:58:00,
2013-02-12 17:04:00,56.5,27.0,29.86,East,95,0.0,5.0,32,0.00,,,0.00,Wunderground v.1.15,2013-02-12 22:04:00,
2013-02-12 17:10:00,56.2,26.7,29.87,East,98,0.0,5.0,32,0.00,,,0.00,Wunderground v.1.15,2013-02-12 22:10:00,
2013-02-12 17:16:00,55.9,25.7,29.87,South,185,0.0,5.0,31,0.00,,,0.00,Wunderground v.1.15,2013-02-12 22:16:00,
2013-02-12 17:22:00,55.7,27.0,29.87,East,85,0.0,5.0,33,0.00,,,0.00,Wunderground v.1.15,2013-02-12 22:22:00,
2013-02-12 17:28:00,55.4,26.0,29.87,SE,141,0.0,5.0,32,0.00,,,0.00,Wunderground v.1.15,2013-02-12 22:28:00,
2013-02-12 17:34:00,55.1,25.0,29.87,ENE,71,0.0,5.0,31,0.00,,,0.00,Wunderground v.1.15,2013-02-12 22:34:00,
2013-02-12 17:42:00,54.8,26.2,29.87,East,87,0.0,5.0,33,0.00,,,0.00,Wunderground v.1.15,2013-02-12 22:42:00,
2013-02-12 17:48:00,54.6,25.3,29.87,East,90,0.0,5.0,32,0.00,,,0.00,Wunderground v.1.15,2013-02-12 22:48:00,
2013-02-12 17:54:00,54.3,26.5,29.87,East,90,0.0,5.0,34,0.00,,,0.00,Wunderground v.1.15,2013-02-12 22:54:00,
2013-02-12 18:00:00,53.9,26.8,29.86,East,90,0.0,5.0,35,0.00,,,0.00,Wunderground v.1.15,2013-02-12 23:00:00,
2013-02-12 18:06:00,53.5,25.8,29.87,East,90,0.0,5.0,34,0.00,,,0.00,Wunderground v.1.15,2013-02-12 23:06:00,
2013-02-12 18:12:00,53.2,26.9,29.88,East,90,0.0,5.0,36,0.00,,,0.00,Wunderground v.1.15,2013-02-12 23:12:00,
2013-02-12 18:18:00,52.7,25.8,29.88,East,90,0.0,5.0,35,0.00,,,0.00,Wunderground v.1.15,2013-02-12 23:18:00,
2013-02-12 18:24:00,52.3,26.1,29.88,East,90,0.0,5.0,36,0.00,,,0.00,Wunderground v.1.15,2013-02-12 23:24:00,
2013-02-12 18:30:00,51.9,24.4,29.87,East,90,0.0,5.0,34,0.00,,,0.00,Wunderground v.1.15,2013-02-12 23:30:00,
2013-02-12 18:36:00,51.7,25.6,29.87,East,90,0.0,5.0,36,0.00,,,0.00,Wunderground v.1.15,2013-02-12 23:36:00,
2013-02-12 18:44:00,51.6,24.1,29.87,East,90,0.0,5.0,34,0.00,,,0.00,Wunderground v.1.15,2013-02-12 23:44:00,
2013-02-12 18:50:00,51.5,27.3,29.87,East,90,0.0,5.0,39,0.00,,,0.00,Wunderground v.1.15,2013-02-12 23:50:00,
2013-02-12 18:56:00,51.1,27.0,29.87,East,90,0.0,5.0,39,0.00,,,0.00,Wunderground v.1.15,2013-02-12 23:56:00,
2013-02-12 19:02:00,50.9,26.2,29.87,East,90,0.0,1.0,38,0.00,,,0.00,Wunderground v.1.15,2013-02-13 00:02:00,
2013-02-12 19:08:00,50.5,27.7,29.86,East,90,0.0,1.0,41,0.00,,,0.00,Wunderground v.1.15,2013-02-13 00:08:00,
2013-02-12 19:14:00,50.1,26.1,29.86,East,90,0.0,1.0,39,0.00,,,0.00,Wunderground v.1.15,2013-02-13 00:14:00,
2013-02-12 19:20:00,49.6,26.8,29.86,East,90,0.0,1.0,41,0.00,,,0.00,Wunderground v.1.15,2013-02-13 00:20:00,
2013-02-12 19:26:00,49.1,25.2,29.86,East,90,0.0,1.0,39,0.00,,,0.00,Wunderground v.1.15,2013-02-13 00:26:00,
2013-02-12 19:32:00,49.0,25.7,29.86,East,90,0.0,1.0,40,0.00,,,0.00,Wunderground v.1.15,2013-02-13 00:32:00,
2013-02-12 19:40:00,48.9,26.8,29.85,East,90,0.0,1.0,42,0.00,,,0.00,Wunderground v.1.15,2013-02-13 00:40:00,
2013-02-12 19:46:00,48.6,28.2,29.85,East,90,0.0,1.0,45,0.00,,,0.00,Wunderground v.1.15,2013-02-13 00:46:00,
2013-02-12 19:52:00,48.1,27.7,29.85,East,90,0.0,1.0,45,0.00,,,0.00,Wunderground v.1.15,2013-02-13 00:52:00,
2013-02-12 19:58:00,47.9,25.3,29.85,East,90,0.0,1.0,41,0.00,,,0.00,Wunderground v.1.15,2013-02-13 00:58:00,
2013-02-12 20:04:00,48.0,27.6,29.85,East,90,0.0,1.0,45,0.00,,,0.00,Wunderground v.1.15,2013-02-13 01:04:00,
2013-02-12 20:10:00,47.7,26.3,29.85,East,90,0.0,1.0,43,0.00,,,0.00,Wunderground v.1.15,2013-02-13 01:10:00,
2013-02-12 20:18:00,47.2,29.0,29.85,East,90,0.0,1.0,49,0.00,,,0.00,Wunderground v.1.15,2013-02-13 01:18:00,
2013-02-12 20:24:00,46.7,26.5,29.85,East,90,0.0,1.0,45,0.00,,,0.00,Wunderground v.1.15,2013-02-13 01:24:00,
2013-02-12 20:30:00,46.4,25.6,29.85,East,90,0.0,1.0,44,0.00,,,0.00,Wunderground v.1.15,2013-02-13 01:30:00,
2013-02-12 20:36:00,46.3,26.1,29.86,East,90,0.0,1.0,45,0.00,,,0.00,Wunderground v.1.15,2013-02-13 01:36:00,
2013-02-12 20:42:00,46.2,26.5,29.87,East,90,0.0,1.0,46,0.00,,,0.00,Wunderground v.1.15,2013-02-13 01:42:00,
2013-02-12 20:48:00,45.9,27.3,29.87,East,90,0.0,1.0,48,0.00,,,0.00,Wunderground v.1.15,2013-02-13 01:48:00,
2013-02-12 20:54:00,45.8,25.6,29.87,East,90,0.0,1.0,45,0.00,,,0.00,Wunderground v.1.15,2013-02-13 01:54:00,
2013-02-12 21:00:00,45.9,26.8,29.87,East,90,0.0,1.0,47,0.00,,,0.00,Wunderground v.1.15,2013-02-13 02:00:00,
2013-02-12 21:06:00,45.8,28.7,29.87,East,90,0.0,1.0,51,0.00,,,0.00,Wunderground v.1.15,2013-02-13 02:06:00,
2013-02-12 21:12:00,45.4,27.3,29.87,East,90,0.0,1.0,49,0.00,,,0.00,Wunderground v.1.15,2013-02-13 02:12:00,
2013-02-12 21:18:00,45.1,27.1,29.86,East,90,0.0,1.0,49,0.00,,,0.00,Wunderground v.1.15,2013-02-13 02:18:00,
2013-02-12 21:24:00,45.0,25.4,29.88,East,90,0.0,1.0,46,0.00,,,0.00,Wunderground v.1.15,2013-02-13 02:24:00,
2013-02-12 21:30:00,45.4,27.3,29.89,East,90,0.0,1.0,49,0.00,,,0.00,Wunderground v.1.15,2013-02-13 02:30:00,
2013-02-12 21:36:00,45.6,28.0,29.89,East,90,0.0,1.0,50,0.00,,,0.00,Wunderground v.1.15,2013-02-13 02:36:00,
2013-02-12 21:42:00,45.6,28.5,29.89,East,90,0.0,1.0,51,0.00,,,0.00,Wunderground v.1.15,2013-02-13 02:42:00,
2013-02-12 21:50:00,45.6,28.5,29.90,East,90,0.0,1.0,51,0.00,,,0.00,Wunderground v.1.15,2013-02-13 02:50:00,
2013-02-12 21:56:00,45.3,30.5,29.89,East,90,0.0,1.0,56,0.00,,,0.00,Wunderground v.1.15,2013-02-13 02:56:00,
2013-02-12 22:04:00,44.9,30.1,29.89,East,90,0.0,1.0,56,0.00,,,0.00,Wunderground v.1.15,2013-02-13 03:04:00,
2013-02-12 22:10:00,44.8,27.8,29.89,East,90,0.0,1.0,51,0.00,,,0.00,Wunderground v.1.15,2013-02-13 03:10:00,
2013-02-12 22:16:00,45.0,27.9,29.89,East,90,0.0,1.0,51,0.00,,,0.00,Wunderground v.1.15,2013-02-13 03:16:00,
2013-02-12 22:22:00,45.2,27.6,29.89,East,90,0.0,1.0,50,0.00,,,0.00,Wunderground v.1.15,2013-02-13 03:22:00,
2013-02-12 22:28:00,45.2,27.6,29.89,East,90,0.0,1.0,50,0.00,,,0.00,Wunderground v.1.15,2013-02-13 03:28:00,
2013-02-12 22:34:00,45.1,26.1,29.88,East,90,0.0,1.0,47,0.00,,,0.00,Wunderground v.1.15,2013-02-13 03:34:00,
2013-02-12 22:42:00,45.1,28.0,29.89,East,90,0.0,1.0,51,0.00,,,0.00,Wunderground v.1.15,2013-02-13 03:42:00,
2013-02-12 22:48:00,45.0,28.4,29.89,East,90,0.0,1.0,52,0.00,,,0.00,Wunderground v.1.15,2013-02-13 03:48:00,
2013-02-12 22:54:00,44.9,29.2,29.89,East,90,0.0,1.0,54,0.00,,,0.00,Wunderground v.1.15,2013-02-13 03:54:00,
2013-02-12 23:00:00,44.7,29.1,29.88,East,90,0.0,1.0,54,0.00,,,0.00,Wunderground v.1.15,2013-02-13 04:00:00,
2013-02-12 23:06:00,44.4,28.3,29.88,East,90,0.0,1.0,53,0.00,,,0.00,Wunderground v.1.15,2013-02-13 04:06:00,
2013-02-12 23:12:00,44.2,29.0,29.87,East,90,0.0,1.0,55,0.00,,,0.00,Wunderground v.1.15,2013-02-13 04:12:00,
2013-02-12 23:22:00,43.8,24.9,29.87,East,90,0.0,1.0,47,0.00,,,0.00,Wunderground v.1.15,2013-02-13 04:22:00,
2013-02-12 23:28:00,43.7,27.7,29.87,East,90,0.0,1.0,53,0.00,,,0.00,Wunderground v.1.15,2013-02-13 04:28:00,
2013-02-12 23:36:00,43.4,27.4,29.87,East,90,0.0,1.0,53,0.00,,,0.00,Wunderground v.1.15,2013-02-13 04:36:00,
2013-02-12 23:42:00,43.3,25.4,29.88,East,90,0.0,1.0,49,0.00,,,0.00,Wunderground v.1.15,2013-02-13 04:42:00,
2013-02-12 23:48:00,43.6,22.0,29.87,East,90,0.0,1.0,42,0.00,,,0.00,Wunderground v.1.15,2013-02-13 04:48:00,
2013-02-12 23:54:00,44.0,25.5,29.87,East,90,0.0,1.0,48,0.00,,,0.00,Wunderground v.1.15,2013-02-13 04:54:00,